Time,TemperatureF,DewpointF,PressureIn,WindDirection,WindDirectionDegrees,WindSpeedMPH,WindSpeedGustMPH,Humidity,HourlyPrecipIn,Conditions,Clouds,dailyrainin,SoftwareType,DateUTC
2013-01-10 01:49:00,27.7,17.1,17.72,NW,324,0.0,0.0,64,0.00,,---,0.00,VWS V14.00,2013-01-10 06:49:00,
2013-01-10 01:59:00,27.3,16.4,17.72,NW,324,0.0,0.0,63,0.00,,---,0.00,VWS V14.00,2013-01-10 06:59:00,
2013-01-10 02:09:00,27.9,17.6,17.72,NW,324,0.0,0.0,65,0.00,,---,0.00,VWS V14.00,2013-01-10 07:09:00,
2013-01-10 02:19:00,28.2,18.0,17.72,NW,324,0.0,0.0,65,0.00,,---,0.00,VWS V14.00,2013-01-10 07:19:00,
2013-01-10 02:29:00,28.4,18.1,17.72,NW,324,0.0,0.0,65,0.00,,---,0.00,VWS V14.00,2013-01-10 07:29:00,
2013-01-10 02:39:00,27.7,17.1,17.72,NW,324,0.0,0.0,64,0.00,,---,0.00,VWS V14.00,2013-01-10 07:39:00,
2013-01-10 02:49:00,27.9,17.6,17.72,NW,324,0.0,0.0,65,0.00,,---,0.00,VWS V14.00,2013-01-10 07:49:00,
2013-01-10 02:59:00,27.5,16.9,17.72,NW,324,0.0,0.0,64,0.00,,---,0.00,VWS V14.00,2013-01-10 07:59:00,
2013-01-10 03:09:00,27.5,17.3,17.72,NW,324,0.0,0.0,65,0.00,,---,0.00,VWS V14.00,2013-01-10 08:09:00,
2013-01-10 03:19:00,27.5,17.3,17.72,NW,324,0.0,0.0,65,0.00,,---,0.00,VWS V14.00,2013-01-10 08:19:00,
2013-01-10 03:29:00,27.5,17.3,17.72,NW,324,0.0,0.0,65,0.00,,---,0.00,VWS V14.00,2013-01-10 08:29:00,
2013-01-10 03:39:00,27.3,17.1,17.72,NW,324,0.0,0.0,65,0.00,,---,0.00,VWS V14.00,2013-01-10 08:39:00,
2013-01-10 03:49:00,28.0,18.5,17.72,NW,324,0.0,0.0,67,0.00,,---,0.00,VWS V14.00,2013-01-10 08:49:00,
2013-01-10 03:59:00,28.8,19.2,17.72,NW,324,0.0,0.0,67,0.00,,---,0.00,VWS V14.00,2013-01-10 08:59:00,
2013-01-10 04:09:00,29.1,19.9,17.72,NW,324,0.0,0.0,68,0.00,,---,0.00,VWS V14.00,2013-01-10 09:09:00,
2013-01-10 04:19:00,28.6,19.0,17.72,NW,324,0.0,0.0,67,0.00,,---,0.00,VWS V14.00,2013-01-10 09:19:00,
2013-01-10 04:29:00,28.8,19.2,17.72,NW,324,0.0,0.0,67,0.00,,---,0.00,VWS V14.00,2013-01-10 09:29:00,
2013-01-10 04:39:00,28.8,19.2,17.72,NW,324,0.0,0.0,67,0.00,,---,0.00,VWS V14.00,2013-01-10 09:39:00,
2013-01-10 04:49:00,29.5,20.2,17.72,NW,324,0.0,0.0,68,0.00,,---,0.00,VWS V14.00,2013-01-10 09:49:00,
2013-01-10 04:59:00,29.5,20.2,17.72,NW,324,0.0,0.0,68,0.00,,---,0.00,VWS V14.00,2013-01-10 09:59:00,
2013-01-10 05:09:00,29.5,20.2,17.72,NW,324,0.0,0.0,68,0.00,,---,0.00,VWS V14.00,2013-01-10 10:09:00,
2013-01-10 05:19:00,29.5,20.2,17.72,NW,324,0.0,0.0,68,0.00,,---,0.00,VWS V14.00,2013-01-10 10:19:00,
2013-01-10 05:29:00,29.8,20.9,17.72,NW,324,0.0,0.0,69,0.00,,---,0.00,VWS V14.00,2013-01-10 10:29:00,
2013-01-10 05:39:00,30.0,20.8,17.72,NW,324,0.0,0.0,68,0.00,,---,0.00,VWS V14.00,2013-01-10 10:39:00,
2013-01-10 05:49:00,29.7,20.4,17.72,NW,324,0.0,0.0,68,0.00,,---,0.00,VWS V14.00,2013-01-10 10:49:00,
2013-01-10 05:59:00,30.2,21.3,17.72,NW,324,0.0,0.0,69,0.00,,---,0.00,VWS V14.00,2013-01-10 10:59:00,
2013-01-10 06:09:00,30.7,21.8,17.72,NW,324,0.0,0.0,69,0.00,,---,0.00,VWS V14.00,2013-01-10 11:09:00,
2013-01-10 06:19:00,31.1,22.5,17.72,NW,324,0.0,0.0,70,0.00,,---,0.00,VWS V14.00,2013-01-10 11:19:00,
2013-01-10 06:29:00,31.3,22.6,17.72,NW,324,0.0,0.0,70,0.00,,---,0.00,VWS V14.00,2013-01-10 11:29:00,
2013-01-10 06:39:00,31.3,22.6,17.72,NW,324,0.0,0.0,70,0.00,,---,0.00,VWS V14.00,2013-01-10 11:39:00,
2013-01-10 06:49:00,32.2,23.9,17.72,ENE,74,0.0,0.0,71,0.00,,---,0.00,VWS V14.00,2013-01-10 11:49:00,
2013-01-10 06:59:00,32.7,24.7,17.72,East,96,0.0,0.0,72,0.00,,---,0.00,VWS V14.00,2013-01-10 11:59:00,
2013-01-10 07:09:00,32.9,24.9,17.72,East,96,0.0,0.0,72,0.00,,---,0.00,VWS V14.00,2013-01-10 12:09:00,
2013-01-10 07:19:00,33.1,25.0,17.72,East,93,0.0,0.0,72,0.00,,---,0.00,VWS V14.00,2013-01-10 12:19:00,
2013-01-10 07:29:00,33.1,25.0,17.72,East,93,0.0,0.0,72,0.00,,---,0.00,VWS V14.00,2013-01-10 12:29:00,
2013-01-10 07:39:00,33.1,25.0,17.72,East,93,0.0,0.0,72,0.00,,---,0.00,VWS V14.00,2013-01-10 12:39:00,
2013-01-10 07:49:00,33.1,25.4,17.72,East,93,0.0,0.0,73,0.00,,---,0.00,VWS V14.00,2013-01-10 12:49:00,
2013-01-10 07:59:00,33.3,25.6,17.72,ESE,108,0.0,0.0,73,0.00,,---,0.00,VWS V14.00,2013-01-10 12:59:00,
2013-01-10 08:09:00,33.4,25.7,17.72,ESE,108,0.0,0.0,73,0.00,,---,0.00,VWS V14.00,2013-01-10 13:09:00,
2013-01-10 08:19:00,33.4,25.7,17.72,ESE,106,0.0,0.0,73,0.00,,---,0.00,VWS V14.00,2013-01-10 13:19:00,
2013-01-10 08:29:00,33.6,25.9,17.72,East,96,0.0,0.0,73,0.00,,---,0.00,VWS V14.00,2013-01-10 13:29:00,
2013-01-10 08:39:00,33.6,25.9,17.72,East,96,0.0,0.0,73,0.00,,---,0.00,VWS V14.00,2013-01-10 13:39:00,
2013-01-10 08:49:00,33.8,26.1,17.72,East,96,0.0,0.0,73,0.00,,---,0.00,VWS V14.00,2013-01-10 13:49:00,
2013-01-10 08:59:00,33.8,25.7,17.72,East,97,0.0,0.0,72,0.00,,---,0.00,VWS V14.00,2013-01-10 13:59:00,
2013-01-10 09:09:00,34.3,25.6,17.72,ESE,121,0.0,0.0,70,0.00,,---,0.00,VWS V14.00,2013-01-10 14:09:00,
2013-01-10 09:19:00,34.9,25.0,17.72,ESE,113,0.0,0.0,67,0.00,,---,0.00,VWS V14.00,2013-01-10 14:19:00,
2013-01-10 09:29:00,35.6,25.0,17.72,SSE,149,0.0,0.0,65,0.00,,---,0.00,VWS V14.00,2013-01-10 14:29:00,
2013-01-10 09:39:00,36.3,25.0,17.72,ESE,115,0.0,0.0,63,0.00,,---,0.00,VWS V14.00,2013-01-10 14:39:00,
2013-01-10 09:49:00,36.5,19.6,17.72,ESE,116,0.0,0.0,50,0.00,,---,0.00,VWS V14.00,2013-01-10 14:49:00,
2013-01-10 09:59:00,36.9,15.9,17.72,SE,127,0.0,0.0,42,0.00,,---,0.00,VWS V14.00,2013-01-10 14:59:00,
2013-01-10 10:09:00,37.4,15.3,17.72,ESE,112,0.0,0.0,40,0.00,,---,0.00,VWS V14.00,2013-01-10 15:09:00,
2013-01-10 10:19:00,37.9,15.2,17.72,East,96,0.0,0.0,39,0.00,,---,0.00,VWS V14.00,2013-01-10 15:19:00,
2013-01-10 10:29:00,38.1,14.2,17.72,ESE,120,0.0,0.0,37,0.00,,---,0.00,VWS V14.00,2013-01-10 15:29:00,
2013-01-10 10:39:00,38.3,13.7,17.72,SE,126,0.0,0.0,36,0.00,,---,0.00,VWS V14.00,2013-01-10 15:39:00,
2013-01-10 10:49:00,38.7,14.0,17.72,SE,136,0.0,0.0,36,0.00,,---,0.00,VWS V14.00,2013-01-10 15:49:00,
2013-01-10 10:59:00,39.2,13.2,17.72,SE,141,0.0,0.0,34,0.00,,---,0.00,VWS V14.00,2013-01-10 15:59:00,
2013-01-10 11:09:00,39.7,13.7,17.72,SE,135,0.0,0.0,34,0.00,,---,0.00,VWS V14.00,2013-01-10 16:09:00,
2013-01-10 11:19:00,39.7,13.0,17.72,ESE,108,0.0,0.0,33,0.00,,---,0.00,VWS V14.00,2013-01-10 16:19:00,
2013-01-10 11:29:00,39.9,13.2,17.72,ESE,111,0.0,0.0,33,0.00,,---,0.00,VWS V14.00,2013-01-10 16:29:00,
2013-01-10 11:39:00,39.7,13.7,17.72,SE,140,0.0,0.0,34,0.00,,---,0.00,VWS V14.00,2013-01-10 16:39:00,
2013-01-10 11:49:00,40.1,14.0,17.72,SE,141,0.0,0.0,34,0.00,,---,0.00,VWS V14.00,2013-01-10 16:49:00,
2013-01-10 11:59:00,40.5,14.3,17.72,SE,132,0.0,0.0,34,0.00,,---,0.00,VWS V14.00,2013-01-10 16:59:00,
2013-01-10 12:09:00,40.1,14.7,17.72,ESE,123,0.0,0.0,35,0.00,,---,0.00,VWS V14.00,2013-01-10 17:09:00,
2013-01-10 12:19:00,39.9,14.5,17.72,ESE,117,0.0,0.0,35,0.00,,---,0.00,VWS V14.00,2013-01-10 17:19:00,
2013-01-10 12:29:00,39.7,16.2,17.72,ESE,113,0.0,0.0,38,0.00,,---,0.00,VWS V14.00,2013-01-10 17:29:00,
2013-01-10 12:39:00,39.6,16.1,17.72,ESE,111,0.0,0.0,38,0.00,,---,0.00,VWS V14.00,2013-01-10 17:39:00,
2013-01-10 12:49:00,39.9,17.0,17.72,ESE,119,0.0,0.0,39,0.00,,---,0.00,VWS V14.00,2013-01-10 17:49:00,
2013-01-10 12:59:00,40.1,16.5,17.72,ESE,116,0.0,0.0,38,0.00,,---,0.00,VWS V14.00,2013-01-10 17:59:00,
2013-01-10 13:09:00,40.3,17.3,17.72,ESE,110,0.0,0.0,39,0.00,,---,0.00,VWS V14.00,2013-01-10 18:09:00,
2013-01-10 13:19:00,40.3,17.3,17.72,East,88,0.0,0.0,39,0.00,,---,0.00,VWS V14.00,2013-01-10 18:19:00,
2013-01-10 13:29:00,40.1,17.1,17.72,SE,127,0.0,0.0,39,0.00,,---,0.00,VWS V14.00,2013-01-10 18:29:00,
2013-01-10 13:39:00,40.5,17.5,17.72,SE,126,0.0,0.0,39,0.00,,---,0.00,VWS V14.00,2013-01-10 18:39:00,
2013-01-10 13:49:00,40.8,17.8,17.72,ESE,117,0.0,0.0,39,0.00,,---,0.00,VWS V14.00,2013-01-10 18:49:00,
2013-01-10 13:59:00,41.2,18.1,17.72,ESE,113,0.0,0.0,39,0.00,,---,0.00,VWS V14.00,2013-01-10 18:59:00,
2013-01-10 14:09:00,41.2,18.1,17.72,ESE,121,0.0,0.0,39,0.00,,---,0.00,VWS V14.00,2013-01-10 19:09:00,
2013-01-10 14:29:00,41.7,18.0,17.72,ESE,119,0.0,0.0,38,0.00,,---,0.00,VWS V14.00,2013-01-10 19:29:00,
2013-01-10 14:39:00,41.2,17.5,17.72,SE,133,0.0,0.0,38,0.00,,---,0.00,VWS V14.00,2013-01-10 19:39:00,
2013-01-10 14:49:00,41.2,18.1,17.72,SSE,155,0.0,0.0,39,0.00,,---,0.00,VWS V14.00,2013-01-10 19:49:00,
2013-01-10 14:59:00,40.8,18.4,17.72,ESE,103,0.0,0.0,40,0.00,,---,0.00,VWS V14.00,2013-01-10 19:59:00,
2013-01-10 15:09:00,40.6,18.2,17.72,SE,143,0.0,0.0,40,0.00,,---,0.00,VWS V14.00,2013-01-10 20:09:00,
2013-01-10 15:19:00,40.8,19.0,17.72,ESE,115,0.0,0.0,41,0.00,,---,0.00,VWS V14.00,2013-01-10 20:19:00,
2013-01-10 15:29:00,40.6,19.4,17.72,SSE,156,0.0,0.0,42,0.00,,---,0.00,VWS V14.00,2013-01-10 20:29:00,
2013-01-10 15:39:00,40.5,20.3,17.72,SE,137,0.0,0.0,44,0.00,,---,0.00,VWS V14.00,2013-01-10 20:39:00,
2013-01-10 15:49:00,39.7,21.7,17.72,SE,139,0.0,0.0,48,0.04,,---,0.04,VWS V14.00,2013-01-10 20:49:00,
2013-01-10 15:59:00,39.4,22.8,17.72,ESE,110,0.0,0.0,51,0.04,,---,0.04,VWS V14.00,2013-01-10 20:59:00,
2013-01-10 16:09:00,39.2,24.0,17.72,ESE,123,0.0,0.0,54,0.04,,---,0.04,VWS V14.00,2013-01-10 21:09:00,
2013-01-10 16:19:00,39.4,25.0,17.72,ESE,110,0.0,0.0,56,0.04,,---,0.04,VWS V14.00,2013-01-10 21:19:00,
2013-01-10 16:29:00,39.4,25.9,17.72,ESE,119,0.0,0.0,58,0.04,,---,0.04,VWS V14.00,2013-01-10 21:29:00,
2013-01-10 16:39:00,39.6,26.8,17.72,ESE,112,0.0,0.0,60,0.04,,---,0.04,VWS V14.00,2013-01-10 21:39:00,
2013-01-10 16:49:00,39.7,27.0,17.72,SE,137,0.0,0.0,60,0.04,,---,0.04,VWS V14.00,2013-01-10 21:49:00,
2013-01-10 16:59:00,39.7,27.4,17.72,East,93,0.0,0.0,61,0.00,,---,0.04,VWS V14.00,2013-01-10 21:59:00,
2013-01-10 17:09:00,39.7,27.4,17.72,SE,135,0.0,0.0,61,0.04,,---,0.08,VWS V14.00,2013-01-10 22:09:00,
2013-01-10 17:19:00,39.6,27.2,17.72,East,100,0.0,0.0,61,0.04,,---,0.08,VWS V14.00,2013-01-10 22:19:00,
2013-01-10 17:29:00,39.4,27.5,17.72,ESE,108,0.0,0.0,62,0.04,,---,0.08,VWS V14.00,2013-01-10 22:29:00,
2013-01-10 17:39:00,39.4,27.9,17.72,ESE,120,0.0,0.0,63,0.04,,---,0.08,VWS V14.00,2013-01-10 22:39:00,
2013-01-10 17:49:00,39.4,27.9,17.72,SE,139,0.0,0.0,63,0.04,,---,0.08,VWS V14.00,2013-01-10 22:49:00,
2013-01-10 17:59:00,39.6,28.0,17.72,ESE,110,0.0,0.0,63,0.04,,---,0.08,VWS V14.00,2013-01-10 22:59:00,
2013-01-10 18:09:00,39.4,27.9,17.72,ESE,112,0.0,0.0,63,0.04,,---,0.08,VWS V14.00,2013-01-10 23:09:00,
2013-01-10 18:19:00,39.6,28.4,17.72,SE,126,0.0,0.0,64,0.00,,---,0.08,VWS V14.00,2013-01-10 23:19:00,
2013-01-10 18:29:00,39.7,28.6,17.72,ESE,112,0.0,0.0,64,0.00,,---,0.08,VWS V14.00,2013-01-10 23:29:00,
2013-01-10 18:39:00,39.7,28.6,17.72,ESE,103,0.0,0.0,64,0.00,,---,0.08,VWS V14.00,2013-01-10 23:39:00,
2013-01-10 18:49:00,40.1,29.3,17.72,ESE,123,0.0,0.0,65,0.00,,---,0.08,VWS V14.00,2013-01-10 23:49:00,
2013-01-10 18:59:00,40.3,29.1,17.72,SE,144,0.0,0.0,64,0.00,,---,0.08,VWS V14.00,2013-01-10 23:59:00,
2013-01-10 19:09:00,40.3,29.1,17.72,SE,131,0.0,0.0,64,0.00,,---,0.08,VWS V14.00,2013-01-11 00:09:00,
2013-01-10 19:19:00,40.3,29.1,17.72,ESE,113,0.0,0.0,64,0.04,,---,0.12,VWS V14.00,2013-01-11 00:19:00,
2013-01-10 19:29:00,40.5,29.3,17.72,SSE,162,0.0,0.0,64,0.04,,---,0.12,VWS V14.00,2013-01-11 00:29:00,
2013-01-10 19:39:00,40.5,29.6,17.72,SE,127,0.0,0.0,65,0.04,,---,0.12,VWS V14.00,2013-01-11 00:39:00,
2013-01-10 19:49:00,40.5,29.6,17.72,SE,145,0.0,0.0,65,0.04,,---,0.12,VWS V14.00,2013-01-11 00:49:00,
2013-01-10 19:59:00,40.6,30.2,17.72,ESE,116,0.0,0.0,66,0.04,,---,0.12,VWS V14.00,2013-01-11 00:59:00,
2013-01-10 20:09:00,41.0,30.9,17.72,ESE,114,0.0,0.0,67,0.04,,---,0.12,VWS V14.00,2013-01-11 01:09:00,
2013-01-10 20:19:00,41.2,31.1,17.72,ESE,111,0.0,0.0,67,0.04,,---,0.12,VWS V14.00,2013-01-11 01:19:00,
2013-01-10 20:29:00,41.5,31.8,17.72,South,176,0.0,0.0,68,0.00,,---,0.12,VWS V14.00,2013-01-11 01:29:00,
2013-01-10 20:39:00,41.9,32.1,17.72,SE,146,0.0,0.0,68,0.00,,---,0.12,VWS V14.00,2013-01-11 01:39:00,
2013-01-10 20:49:00,42.1,32.7,17.72,ESE,104,0.0,0.0,69,0.00,,---,0.12,VWS V14.00,2013-01-11 01:49:00,
2013-01-10 20:59:00,42.1,32.3,17.72,ESE,109,0.0,0.0,68,0.00,,---,0.12,VWS V14.00,2013-01-11 01:59:00,
2013-01-10 21:09:00,42.1,32.3,17.72,East,99,0.0,0.0,68,0.00,,---,0.12,VWS V14.00,2013-01-11 02:09:00,
2013-01-10 21:19:00,41.9,32.5,17.72,SE,143,0.0,0.0,69,0.00,,---,0.12,VWS V14.00,2013-01-11 02:19:00,
2013-01-10 21:29:00,42.1,33.0,17.72,ESE,110,0.0,0.0,70,0.00,,---,0.12,VWS V14.00,2013-01-11 02:29:00,
2013-01-10 21:39:00,42.4,33.4,17.72,SSW,205,0.0,0.0,70,0.00,,---,0.12,VWS V14.00,2013-01-11 02:39:00,
2013-01-10 21:49:00,42.8,33.7,17.72,ESE,117,0.0,0.0,70,0.00,,---,0.12,VWS V14.00,2013-01-11 02:49:00,
2013-01-10 21:59:00,43.0,33.9,17.72,SSE,148,0.0,0.0,70,0.00,,---,0.12,VWS V14.00,2013-01-11 02:59:00,
2013-01-10 22:09:00,43.0,33.9,17.72,SE,135,0.0,0.0,70,0.00,,---,0.12,VWS V14.00,2013-01-11 03:09:00,
2013-01-10 22:19:00,43.2,34.0,17.72,SE,137,0.0,0.0,70,0.00,,---,0.12,VWS V14.00,2013-01-11 03:19:00,
2013-01-10 22:29:00,43.3,34.2,17.72,SSE,152,0.0,0.0,70,0.00,,---,0.12,VWS V14.00,2013-01-11 03:29:00,
2013-01-10 22:39:00,43.3,34.2,17.72,SSE,154,0.0,0.0,70,0.00,,---,0.12,VWS V14.00,2013-01-11 03:39:00,
2013-01-10 22:49:00,43.3,34.2,17.72,ESE,107,0.0,0.0,70,0.00,,---,0.12,VWS V14.00,2013-01-11 03:49:00,
2013-01-10 22:59:00,43.3,34.2,17.72,SE,124,0.0,0.0,70,0.00,,---,0.12,VWS V14.00,2013-01-11 03:59:00,
2013-01-10 23:09:00,43.3,33.9,17.72,SE,132,0.0,0.0,69,0.00,,---,0.12,VWS V14.00,2013-01-11 04:09:00,
2013-01-10 23:19:00,43.2,33.7,17.72,SE,124,0.0,0.0,69,0.00,,---,0.12,VWS V14.00,2013-01-11 04:19:00,
2013-01-10 23:29:00,43.3,34.2,17.72,SE,124,0.0,0.0,70,0.00,,---,0.12,VWS V14.00,2013-01-11 04:29:00,
2013-01-10 23:39:00,43.3,33.9,17.72,ESE,103,0.0,0.0,69,0.00,,---,0.12,VWS V14.00,2013-01-11 04:39:00,
2013-01-10 23:49:00,43.2,33.7,17.72,SSE,162,0.0,0.0,69,0.00,,---,0.12,VWS V14.00,2013-01-11 04:49:00,
2013-01-10 23:59:00,43.3,33.9,17.72,SSE,162,0.0,0.0,69,0.00,,---,0.00,VWS V14.00,2013-01-11 04:59:00,